When you browse on this site, cookies collect data to enhance your experience and personalize the content and advertising you see.
Visit our Privacy Policy to learn more. By continuing to use the site, you agree to this use of cookies and data.

Hourly Weather Galle

Today, 10 July, Friday

Time Temperature Precipitation Wind Pressure Humidity
00:00 +28°C° 0.1 mm 3 mps 751 mmHg 90%
01:00 +28°C° 0.1 mm 3 mps 750 mmHg 90%
02:00 +27°C° 0.1 mm 3 mps 750 mmHg 90%
03:00 +27°C° 0.1 mm 3 mps 750 mmHg 90%
04:00 +27°C° 0.1 mm 2 mps 750 mmHg 90%
05:00 +27°C° 0.1 mm 2 mps 750 mmHg 90%
06:00 +28°C° 0.1 mm 2 mps 751 mmHg 87%
07:00 +29°C° 0.1 mm 3 mps 751 mmHg 84%
08:00 +30°C° 0.1 mm 4 mps 752 mmHg 80%
09:00 +30°C° 0.1 mm 4 mps 752 mmHg 77%
10:00 +32°C° 0.1 mm 5 mps 752 mmHg 73%
11:00 +32°C° 0.1 mm 5 mps 752 mmHg 69%
12:00 +32°C° 0.9 mm 5 mps 752 mmHg 71%
13:00 +32°C° 0.9 mm 5 mps 751 mmHg 73%
14:00 +30°C° 0.9 mm 5 mps 750 mmHg 75%
15:00 +30°C° 0.3 mm 4 mps 750 mmHg 77%
16:00 +30°C° 0.3 mm 4 mps 750 mmHg 79%
17:00 +29°C° 0.3 mm 4 mps 750 mmHg 81%
18:00 +29°C° 0.1 mm 3 mps 751 mmHg 84%
19:00 +28°C° 0.1 mm 3 mps 751 mmHg 86%
20:00 +28°C° 0.1 mm 2 mps 752 mmHg 89%
21:00 +28°C° 0.1 mm 2 mps 752 mmHg 89%
22:00 +28°C° 0.1 mm 2 mps 752 mmHg 89%
23:00 +28°C° 0.1 mm 2 mps 752 mmHg 89%

Tomorrow, 11 July, Saturday

Time Temperature Precipitation Wind Pressure Humidity
00:00 +28°C° 0.1 mm 2 mps 751 mmHg 89%
01:00 +28°C° 0.1 mm 3 mps 751 mmHg 89%
02:00 +27°C° 0.1 mm 3 mps 750 mmHg 89%
03:00 +27°C° 0.6 mm 3 mps 750 mmHg 89%
04:00 +27°C° 0.6 mm 2 mps 750 mmHg 89%
05:00 +27°C° 0.6 mm 2 mps 750 mmHg 89%
06:00 +28°C° 0.5 mm 3 mps 751 mmHg 86%
07:00 +29°C° 0.5 mm 3 mps 751 mmHg 83%
08:00 +29°C° 0.5 mm 3 mps 752 mmHg 81%
09:00 +30°C° 0.3 mm 3 mps 752 mmHg 78%
10:00 +30°C° 0.3 mm 4 mps 752 mmHg 76%
11:00 +32°C° 0.3 mm 4 mps 751 mmHg 74%
12:00 +32°C° 0.3 mm 4 mps 751 mmHg 74%
13:00 +32°C° 0.3 mm 4 mps 750 mmHg 73%
14:00 +32°C° 0.3 mm 4 mps 750 mmHg 73%
15:00 +30°C° 0.2 mm 4 mps 750 mmHg 76%
16:00 +30°C° 0.2 mm 4 mps 750 mmHg 78%
17:00 +29°C° 0.2 mm 3 mps 750 mmHg 81%
18:00 +29°C° 0.5 mm 3 mps 751 mmHg 83%
19:00 +28°C° 0.5 mm 3 mps 751 mmHg 86%
20:00 +28°C° 0.5 mm 3 mps 752 mmHg 89%
21:00 +28°C° 0.4 mm 2 mps 752 mmHg 89%
22:00 +28°C° 0.4 mm 2 mps 752 mmHg 89%
23:00 +27°C° 0.4 mm 2 mps 752 mmHg 89%

Day after tomorrow, 12 July, Sunday

Time Temperature Precipitation Wind Pressure Humidity
00:00 +27°C° 0.7 mm 2 mps 751 mmHg 89%
01:00 +27°C° 0.7 mm 2 mps 751 mmHg 90%
02:00 +27°C° 0.7 mm 2 mps 750 mmHg 90%
03:00 +27°C° 1 mm 2 mps 750 mmHg 90%
04:00 +27°C° 1 mm 2 mps 750 mmHg 90%
05:00 +27°C° 1 mm 2 mps 750 mmHg 90%
06:00 +28°C° 1.6 mm 3 mps 751 mmHg 87%
07:00 +28°C° 1.6 mm 3 mps 751 mmHg 84%
08:00 +29°C° 1.6 mm 3 mps 752 mmHg 81%
09:00 +30°C° 1.4 mm 3 mps 752 mmHg 79%
10:00 +30°C° 1.4 mm 4 mps 751 mmHg 76%
11:00 +32°C° 1.4 mm 4 mps 751 mmHg 73%
12:00 +32°C° 1.1 mm 4 mps 751 mmHg 75%
13:00 +30°C° 1.1 mm 4 mps 750 mmHg 76%
14:00 +30°C° 1.1 mm 4 mps 750 mmHg 77%
15:00 +30°C° 1.6 mm 4 mps 750 mmHg 80%
16:00 +29°C° 1.6 mm 4 mps 750 mmHg 83%
17:00 +29°C° 1.6 mm 3 mps 750 mmHg 85%
18:00 +28°C° 1.1 mm 3 mps 750 mmHg 87%
19:00 +28°C° 1.1 mm 3 mps 751 mmHg 88%
20:00 +27°C° 1.1 mm 2 mps 751 mmHg 89%
21:00 +27°C° 1.5 mm 2 mps 751 mmHg 89%
22:00 +27°C° 1.5 mm 2 mps 752 mmHg 89%
23:00 +27°C° 1.5 mm 3 mps 752 mmHg 89%

13 July, Monday

Time Temperature Precipitation Wind Pressure Humidity
00:00 +27°C° 1.7 mm 3 mps 751 mmHg 89%
01:00 +27°C° 1.7 mm 3 mps 751 mmHg 89%
02:00 +27°C° 1.7 mm 3 mps 750 mmHg 89%
03:00 +27°C° 0.8 mm 3 mps 750 mmHg 89%
04:00 +27°C° 0.8 mm 3 mps 750 mmHg 89%
05:00 +27°C° 0.8 mm 3 mps 750 mmHg 89%
06:00 +27°C° 0.9 mm 2 mps 750 mmHg 88%
07:00 +28°C° 0.9 mm 2 mps 751 mmHg 86%
08:00 +28°C° 0.9 mm 2 mps 751 mmHg 85%
09:00 +28°C° 1.1 mm 3 mps 751 mmHg 84%
10:00 +29°C° 1.1 mm 3 mps 751 mmHg 83%
11:00 +29°C° 1.1 mm 3 mps 751 mmHg 82%
12:00 +29°C° 1.9 mm 3 mps 750 mmHg 83%
13:00 +29°C° 1.9 mm 3 mps 750 mmHg 84%
14:00 +29°C° 1.9 mm 3 mps 749 mmHg 85%
15:00 +29°C° 1.4 mm 3 mps 749 mmHg 85%
16:00 +29°C° 1.4 mm 3 mps 749 mmHg 85%
17:00 +28°C° 1.4 mm 3 mps 749 mmHg 85%
18:00 +28°C° 0.9 mm 3 mps 750 mmHg 87%
19:00 +28°C° 0.9 mm 2 mps 750 mmHg 89%
20:00 +27°C° 0.9 mm 2 mps 751 mmHg 91%
21:00 +27°C° 0.3 mm 2 mps 751 mmHg 91%
22:00 +27°C° 0.3 mm 2 mps 751 mmHg 91%
23:00 +27°C° 0.3 mm 2 mps 751 mmHg 91%

14 July, Tuesday

Time Temperature Precipitation Wind Pressure Humidity
00:00 +27°C° 0.3 mm 2 mps 750 mmHg 91%
01:00 +27°C° 0.3 mm 2 mps 750 mmHg 91%
02:00 +27°C° 0.3 mm 2 mps 750 mmHg 91%
03:00 +27°C° 0.4 mm 2 mps 750 mmHg 91%
04:00 +27°C° 0.4 mm 2 mps 750 mmHg 91%
05:00 +27°C° 0.4 mm 2 mps 750 mmHg 90%
06:00 +28°C° 0.1 mm 3 mps 750 mmHg 87%
07:00 +28°C° 0.1 mm 3 mps 751 mmHg 84%
08:00 +29°C° 0.1 mm 3 mps 751 mmHg 81%
09:00 +30°C° 0.7 mm 4 mps 751 mmHg 80%
10:00 +30°C° 0.7 mm 4 mps 751 mmHg 80%
11:00 +30°C° 0.7 mm 4 mps 751 mmHg 79%
12:00 +30°C° 1 mm 4 mps 750 mmHg 79%
13:00 +30°C° 1 mm 5 mps 750 mmHg 80%
14:00 +30°C° 1 mm 5 mps 750 mmHg 80%
15:00 +30°C° 1 mm 4 mps 750 mmHg 82%
16:00 +29°C° 1 mm 4 mps 750 mmHg 84%
17:00 +29°C° 1 mm 3 mps 750 mmHg 85%
18:00 +28°C° 0.6 mm 3 mps 750 mmHg 87%
19:00 +28°C° 0.6 mm 3 mps 751 mmHg 89%
20:00 +27°C° 0.6 mm 3 mps 752 mmHg 90%
21:00 +27°C° 0.6 mm 3 mps 752 mmHg 90%
22:00 +27°C° 0.6 mm 3 mps 752 mmHg 90%
23:00 +27°C° 0.6 mm 3 mps 752 mmHg 91%

15 July, Wednesday

Time Temperature Precipitation Wind Pressure Humidity
00:00 +27°C° 0.8 mm 3 mps 751 mmHg 90%
01:00 +27°C° 0.8 mm 3 mps 751 mmHg 90%
02:00 +27°C° 0.8 mm 3 mps 750 mmHg 90%
03:00 +27°C° 1 mm 3 mps 750 mmHg 91%
04:00 +27°C° 1 mm 2 mps 750 mmHg 91%
05:00 +27°C° 1 mm 2 mps 751 mmHg 91%
06:00 +27°C° 1.2 mm 3 mps 751 mmHg 89%
07:00 +28°C° 1.2 mm 3 mps 751 mmHg 86%
08:00 +29°C° 1.2 mm 3 mps 752 mmHg 84%
09:00 +29°C° 1.3 mm 3 mps 752 mmHg 82%
10:00 +30°C° 1.3 mm 4 mps 751 mmHg 81%
11:00 +30°C° 1.3 mm 4 mps 751 mmHg 80%
12:00 +30°C° 0.8 mm 4 mps 751 mmHg 80%
13:00 +30°C° 0.8 mm 4 mps 750 mmHg 80%
14:00 +30°C° 0.8 mm 5 mps 750 mmHg 80%
15:00 +30°C° 0.8 mm 4 mps 750 mmHg 82%
16:00 +29°C° 0.8 mm 4 mps 750 mmHg 84%
17:00 +29°C° 0.8 mm 4 mps 750 mmHg 86%
18:00 +28°C° 0.3 mm 3 mps 750 mmHg 88%
19:00 +28°C° 0.3 mm 3 mps 751 mmHg 89%
20:00 +27°C° 0.3 mm 3 mps 751 mmHg 91%
21:00 +27°C° 0.6 mm 3 mps 751 mmHg 91%
22:00 +27°C° 0.6 mm 3 mps 751 mmHg 91%
23:00 +27°C° 0.6 mm 3 mps 752 mmHg 91%
Show more